Location: Newark
(48.6461°N, 4.3644°W)
Time: 08:50:08
(UTC+00:00)

Altair - Pass Details

Date: 20 January 2021
Orbit: 1501 x 1682 km, 47.2° (Epoch: 24 February)

Event Time Altitude Azimuth Distance (km) Brightness Sun altitude
Rises 06:38:08 0° 228° (SW) 4,881 9.8 -13.4°
Reaches altitude 10° 06:41:19 10° 224° (SW) 3,912 9.4 -12.9°
Maximum altitude 06:51:02 56° 150° (SSE) 1,949 8.3 -11.3°
Drops below altitude 10° 07:00:49 10° 76° (ENE) 3,939 10.6 -9.8°
Sets 07:04:02 0° 73° (ENE) 4,917 11.1 -9.3°
